Wind_Speed
55 53 50 48 46 45 43 46 46 48 47 45 45 41 40 35 34 46 33 27 28 30 35 27 29 33 32 27 22 18 17 16 17 17 18 19 20 18 17 13 15 18 20 24 27 30 31 36 45 45 41 41 43 39
51 48 45 42 42 45 48 46 46 47 45 42 40 40 39 45 40 26 37 25 24 27 31 30 29 29 26 21 18 17 16 14 15 16 17 17 17 18 19 19 21 26 27 29 29 35 34 36 35 42 45 42 42 39
46 44 44 43 45 47 48 46 44 44 42 42 37 39 41 40 33 36 23 22 30 25 27 26 25 26 22 19 17 17 15 15 17 18 19 17 17 18 19 22 24 25 26 31 34 35 37 36 36 38 43 42 40 41
44 44 45 45 45 45 43 44 45 43 47 40 41 38 33 31 35 28 28 28 30 28 25 21 18 19 20 19 18 17 16 15 16 19 20 18 18 18 19 22 24 27 30 30 29 31 33 35 35 34 40 43 40 41
43 42 42 42 41 41 40 43 43 42 37 38 24 30 30 27 25 25 27 26 22 23 22 22 22 23 21 20 18 17 16 14 17 19 17 16 15 16 19 21 25 27 27 26 26 27 29 31 34 32 36 41 43 41
41 40 38 38 40 36 40 38 35 28 21 20 26 26 12 15 16 22 24 25 21 20 22 25 21 21 21 19 19 17 16 15 15 15 13 13 14 15 16 19 20 20 21 21 20 22 26 30 33 38 37 41 45 43
38 37 38 34 33 36 39 29 21 16 13 14 13 10 14 11 13 17 17 22 23 24 24 23 23 22 21 22 21 17 16 16 14 11 12 14 13 13 14 15 16 17 19 16 14 13 15 19 23 30 39 42 46 46
30 28 30 28 28 25 21 17 13 9 7 4 5 2 4 12 14 20 20 19 23 24 22 21 19 20 23 24 22 19 19 19 18 15 14 13 14 14 13 13 13 14 15 14 12 10 9 16 25 25 29 40 46 48
18 26 19 17 22 15 9 5 7 9 11 15 13 13 16 16 15 15 20 21 19 18 17 17 21 23 25 25 24 23 23 22 19 17 16 15 15 15 14 13 13 13 15 14 11 9 7 11 24 30 33 40 49 47
21 19 13 10 9 9 9 9 12 16 14 7 6 9 13 14 17 17 14 17 14 14 17 20 23 23 26 27 25 24 24 22 20 20 19 18 16 17 14 15 13 11 14 15 8 11 10 10 10 26 31 37 44 49
17 10 9 9 9 11 10 6 4 6 6 6 5 6 6 6 6 7 8 11 13 15 17 19 21 22 25 27 28 25 23 23 21 20 20 17 19 16 15 15 14 11 10 12 10 11 11 9 8 14 27 33 35 43
13 12 6 7 10 9 8 7 6 5 4 3 2 1 2 3 3 4 6 9 10 13 16 19 21 22 23 25 25 23 22 24 24 20 21 18 23 20 15 15 14 13 10 10 10 7 8 9 8 6 14 20 26 38
10 5 8 8 8 8 7 6 5 3 3 2 2 3 4 4 5 5 6 8 9 11 14 16 19 20 22 23 22 22 24 23 21 21 18 20 25 22 17 16 15 14 14 12 10 9 7 9 13 14 11 12 17 23
5 5 5 7 8 8 8 7 6 6 6 7 7 7 8 9 9 9 9 10 10 12 14 16 15 17 17 19 21 22 22 22 24 17 14 25 26 22 18 16 14 15 15 14 13 12 10 8 7 14 20 21 22 21
4 7 8 9 9 10 10 10 9 9 9 9 10 11 12 13 14 14 15 14 13 14 13 13 14 14 16 19 19 19 21 22 17 9 21 24 22 22 22 19 16 15 15 15 15 16 14 11 12 12 13 20 28 28
6 8 9 9 9 8 9 9 9 9 10 11 11 11 12 11 11 17 18 16 18 17 18 18 16 20 17 20 20 22 23 18 19 19 23 24 23 25 23 22 21 18 17 17 17 17 18 18 16 14 16 18 21 27
7 7 7 8 8 8 8 8 7 8 7 7 7 7 8 8 9 11 11 12 19 24 23 24 27 23 22 22 22 21 23 23 19 22 20 21 21 19 21 22 24 23 22 22 21 20 19 21 22 23 20 16 16 22
5 6 7 9 11 12 11 12 11 10 9 8 7 8 9 10 10 10 10 12 13 15 16 20 32 26 23 22 22 24 26 29 26 27 23 25 23 21 25 28 27 28 27 26 24 23 21 20 23 26 26 23 19 18
7 7 8 9 11 12 12 12 11 11 10 9 8 8 7 7 7 8 9 9 9 8 11 12 20 25 27 26 26 24 21 21 19 20 21 26 24 19 19 19 20 22 27 27 24 23 22 22 22 21 22 23 22 20
5 7 8 10 12 11 12 13 13 11 10 10 9 8 8 7 7 6 6 4 4 5 4 3 7 8 9 12 11 12 16 18 19 20 20 21 19 18 17 21 23 25 24 24 24 23 21 21 22 22 23 23 21 21
7 6 6 9 13 13 13 14 14 12 9 11 11 10 9 9 8 6 4 3 2 3 4 1 2 4 3 2 3 2 1 1 3 2 5 7 9 13 8 13 14 16 16 17 18 19 21 24 25 25 26 25 27 28
6 9 11 10 10 14 14 18 19 14 12 12 12 12 10 8 8 8 9 6 4 3 2 2 1 1 2 3 5 7 6 6 7 4 3 3 9 12 13 18 21 25 28 26 22 21 22 23 27 27 27 27 25 26
7 8 10 11 12 14 15 15 16 17 18 18 16 12 11 10 9 8 7 7 6 6 6 5 4 3 3 3 3 2 1 1 1 3 5 8 10 13 15 17 20 20 20 20 21 20 19 20 21 21 21 22 24 23
8 9 10 10 11 13 16 15 15 15 17 18 18 15 11 11 9 8 8 8 8 8 8 7 6 5 5 5 4 4 3 2 2 3 4 5 7 9 11 12 13 14 15 16 17 17 18 18 20 20 21 21 21 21
9 10 11 12 12 14 15 17 17 16 18 19 18 16 12 11 10 9 10 10 11 10 9 8 8 7 7 6 6 6 5 4 3 3 4 5 4 4 4 5 6 7 9 10 11 13 15 16 18 21 24 24 24 24
11 12 12 13 15 15 15 17 18 17 17 15 16 14 13 12 10 9 11 10 10 11 11 10 9 9 9 8 8 7 7 7 8 8 8 9 9 9 9 9 8 8 8 8 7 8 9 12 13 15 16 19 22 24
11 11 12 14 14 15 16 17 17 17 16 16 15 14 13 10 8 9 11 11 12 12 12 12 12 12 13 12 12 11 11 11 12 12 12 12 12 11 9 9 9 9 9 10 9 4 5 8 2 4 10 16 21 23
10 11 12 13 13 13 13 14 15 15 15 15 15 14 12 10 9 10 10 11 12 13 13 12 13 14 15 15 14 12 11 11 11 12 11 12 11 10 10 10 8 7 10 12 13 14 13 9 9 9 7 3 8 15
9 11 12 13 13 12 12 13 14 16 16 16 16 15 13 13 12 11 11 12 12 13 13 13 13 13 14 14 14 13 14 14 13 13 14 14 14 14 14 13 12 12 12 14 15 15 15 15 14 11 11 11 8 9
10 12 12 13 12 11 11 13 13 15 15 15 15 14 14 13 13 13 12 12 12 12 13 13 13 13 15 15 15 15 16 16 15 16 17 17 17 17 16 16 15 15 14 14 15 17 17 17 17 17 17 18 18 17
9 9 10 12 11 10 9 11 12 14 14 14 14 14 13 12 11 11 11 11 11 11 11 12 13 14 14 14 14 14 15 15 16 16 17 17 18 20 21 21 22 23 24 25 26 25 23 20 20 21 20 21 22 23
10 9 9 9 11 9 9 8 11 12 13 13 14 13 12 11 10 10 10 9 8 8 9 10 10 11 12 13 12 13 13 14 13 14 16 17 18 19 20 21 21 21 22 22 23 24 23 23 23 23 22 23 25 27
13 16 18 15 8 8 10 6 8 11 12 12 13 13 12 11 10 10 10 9 8 8 7 7 7 7 8 9 10 10 10 11 13 14 15 17 17 18 19 21 21 22 22 23 24 24 24 24 25 26 27 28 29 30
Wind_Direction
295 295 294 293 294 292 295 298 298 299 296 291 286 283 288 282 260 276 267 266 250 253 242 249 245 240 237 240 234 227 228 229 234 234 236 244 240 220 224 239 250 254 256 261 258 258 254 255 243 240 238 236 237 229
295 296 292 291 291 290 295 297 298 299 297 292 286 283 282 270 265 257 268 246 235 238 243 248 244 246 235 225 218 224 232 227 224 237 239 219 226 231 234 246 260 264 268 270 266 262 262 257 254 237 233 233 230 228
295 295 293 289 291 291 294 296 294 297 297 297 290 290 284 283 268 243 232 230 244 251 245 247 235 233 217 206 214 227 221 222 232 236 218 225 227 236 250 265 272 272 273 276 275 262 256 250 249 238 225 226 226 223
295 293 292 293 292 292 291 291 291 290 291 288 292 290 281 270 243 254 238 239 247 246 245 225 230 211 195 205 215 214 220 234 234 223 219 229 239 254 263 274 275 278 280 276 272 264 252 243 238 239 224 219 222 219
295 295 293 292 293 296 289 289 295 290 286 292 286 284 270 252 246 223 241 235 237 233 241 214 193 195 200 207 206 212 220 233 223 222 232 241 251 260 272 277 281 285 282 280 273 266 254 239 230 229 222 214 216 215
297 295 295 295 296 295 296 292 289 291 293 278 271 288 254 208 214 233 230 228 247 255 209 186 188 199 206 204 205 213 218 213 208 215 228 238 250 260 271 283 291 295 291 293 277 267 253 250 229 226 223 215 213 213
297 296 298 298 295 294 295 288 301 290 282 272 268 234 223 238 220 225 244 259 249 213 177 185 199 203 204 202 210 213 198 193 197 216 231 234 245 262 275 293 303 301 302 303 275 272 242 233 218 215 209 213 212 214
305 305 299 297 297 301 294 282 267 260 268 253 344 225 183 221 231 254 255 228 200 180 182 198 196 202 203 205 212 207 200 204 213 226 237 240 246 259 270 297 304 312 313 314 287 262 229 220 215 214 214 219 217 215
304 313 319 311 309 307 300 289 273 292 289 287 268 234 241 249 247 227 209 197 176 184 203 203 203 209 206 211 215 212 214 222 228 237 248 250 249 261 271 281 308 318 322 326 289 261 265 262 240 232 226 224 221 215
324 327 330 329 329 338 316 295 292 303 318 328 315 260 241 216 196 188 175 177 184 206 208 205 206 211 214 218 221 220 226 235 241 244 243 244 249 259 260 270 292 317 327 331 299 251 254 257 254 223 228 221 218 210
328 331 343 331 326 333 333 334 30 64 64 74 96 117 144 154 165 188 208 217 223 220 212 210 214 218 222 224 226 226 231 238 238 236 247 242 244 253 254 262 273 295 319 327 314 265 256 252 270 237 220 211 212 217
345 328 344 45 48 44 43 41 29 24 18 18 36 100 131 141 172 194 206 215 219 216 214 218 224 229 231 234 235 232 238 241 242 238 248 245 243 248 249 251 257 269 288 310 316 289 247 239 230 190 188 204 211 212
345 36 29 25 27 19 5 4 3 347 332 318 308 278 257 248 241 240 230 230 233 229 229 230 235 238 239 240 244 243 244 247 247 244 246 250 246 247 250 249 252 260 270 276 288 287 263 237 229 218 213 210 203 205
19 18 9 359 353 346 337 336 330 312 299 291 286 278 270 266 259 252 247 244 241 236 233 235 241 240 247 244 242 245 250 249 251 255 250 250 249 251 248 244 254 262 268 259 255 260 263 256 234 228 230 222 219 220
14 350 340 343 338 332 325 322 318 308 299 293 289 284 277 269 261 253 249 247 241 238 237 237 239 240 237 238 240 245 250 258 270 261 252 257 254 252 249 246 253 264 265 257 248 247 245 248 245 241 234 234 229 224
351 340 338 339 341 341 337 329 319 313 306 298 290 282 278 270 248 260 248 250 245 242 235 238 241 245 240 243 255 260 260 271 278 274 241 244 252 245 239 242 246 261 260 253 250 251 251 247 246 245 250 245 241 234
346 350 12 7 7 7 3 357 352 345 333 329 332 310 284 278 279 269 269 271 253 238 236 241 242 243 240 253 264 265 263 266 270 279 266 254 240 233 243 249 251 259 263 251 248 249 255 253 250 249 247 245 241 237
42 41 56 51 46 38 32 24 14 2 356 345 332 313 300 292 289 284 275 269 264 255 248 248 238 248 252 253 257 263 271 276 274 280 277 273 257 245 266 260 251 258 255 252 253 261 258 249 244 241 241 246 249 246
82 75 47 34 27 21 17 13 9 12 12 10 10 6 5 350 321 302 295 274 265 262 243 235 236 241 242 247 254 267 264 255 254 256 261 262 247 238 238 235 236 239 246 253 257 252 247 243 240 240 242 245 252 251
66 38 33 36 26 16 17 13 10 4 10 14 14 8 2 354 342 325 309 300 254 243 296 173 149 170 198 217 226 230 230 224 219 216 215 220 226 227 219 230 237 242 242 241 241 245 249 251 252 247 244 246 245 243
48 36 28 15 5 16 15 13 12 11 15 19 19 17 14 10 22 29 38 54 103 133 161 179 6 3 8 66 68 204 315 38 234 254 290 284 269 272 260 246 257 276 271 263 254 255 256 257 260 261 260 251 245 246
11 26 25 17 28 22 23 22 24 34 28 24 24 24 25 30 36 48 53 58 85 94 104 98 105 179 220 214 229 251 281 297 301 309 309 237 208 249 244 256 264 262 266 274 272 266 264 262 258 257 254 251 247 244
41 29 26 36 32 32 26 23 26 32 32 30 27 25 32 38 42 45 46 55 65 76 84 88 93 101 111 109 103 107 117 47 326 301 288 274 263 261 260 259 259 263 265 266 264 263 264 265 258 250 243 238 235 234
39 40 40 42 41 37 35 29 27 31 33 32 27 29 39 43 53 57 59 69 79 84 84 85 88 92 95 98 106 100 82 72 67 34 0 324 282 267 265 264 266 267 268 268 268 266 262 257 249 242 234 229 229 227
52 56 50 45 39 36 33 31 31 32 35 29 29 32 42 44 59 67 72 73 74 73 72 70 72 78 82 88 92 96 92 81 58 38 20 16 10 357 340 324 311 304 295 290 283 280 274 263 250 241 236 232 232 231
62 55 50 43 37 34 34 32 29 31 35 31 31 33 43 48 56 64 70 71 69 67 66 65 71 83 89 87 86 82 74 64 57 52 42 34 29 24 23 21 13 4 355 337 306 290 289 282 259 242 231 226 223 223
59 52 48 41 37 33 32 30 29 33 34 34 34 39 51 51 60 68 69 66 64 66 71 73 75 83 84 82 77 74 70 66 63 59 52 45 40 33 27 27 28 27 28 29 26 3 356 22 17 233 226 222 218 216
54 47 42 37 34 33 32 32 35 38 39 39 43 50 64 74 74 71 70 70 73 75 76 77 79 81 79 75 70 66 62 54 49 48 42 39 36 32 29 32 38 44 48 48 48 49 53 54 49 39 59 115 184 195
50 44 42 37 33 32 35 37 38 39 42 45 49 56 62 65 72 78 79 79 79 82 85 84 80 78 74 69 67 64 61 57 49 54 50 45 42 40 37 35 35 43 53 61 60 56 58 62 67 76 82 85 104 135
44 40 38 39 37 35 41 44 45 47 46 50 57 61 64 67 75 79 84 84 82 84 86 84 81 77 75 72 67 65 65 62 57 54 53 52 54 52 52 52 50 49 48 53 61 69 70 68 71 76 78 83 89 101
35 35 36 35 38 37 43 47 46 51 53 54 57 59 60 65 71 78 82 84 84 82 81 82 83 80 74 70 69 63 57 57 56 54 58 63 64 64 62 61 62 64 65 65 66 64 61 64 72 77 82 87 92 98
26 21 22 31 32 41 37 41 46 49 54 58 57 59 60 61 66 74 77 80 82 82 86 89 83 80 79 73 64 60 60 62 62 62 65 66 67 65 65 64 64 65 66 67 68 69 69 69 71 75 81 86 92 96
16 31 34 26 32 46 41 54 53 48 46 51 58 59 58 58 60 66 75 78 86 92 90 90 87 84 85 81 72 67 67 68 65 62 63 67 70 69 67 66 65 65 67 69 71 73 76 79 82 85 87 90 92 95
Height
5737 5734 5730 5726 5721 5717 5713 5710 5706 5702 5698 5694 5692 5690 5688 5687 5686 5686 5686 5686 5688 5691 5691 5693 5695 5697 5698 5702 5706 5711 5715 5717 5719 5720 5723 5724 5726 5728 5730 5732 5733 5734 5736 5736 5737 5736 5737 5738 5740 5744 5750 5754 5759 5764
5723 5719 5715 5711 5708 5704 5701 5696 5692 5688 5683 5679 5676 5675 5674 5674 5675 5675 5676 5677 5678 5680 5683 5684 5686 5689 5691 5695 5701 5705 5708 5710 5713 5715 5717 5719 5722 5723 5725 5727 5727 5727 5727 5726 5726 5724 5726 5726 5727 5731 5737 5742 5748 5754
5709 5706 5701 5697 5694 5691 5687 5683 5679 5674 5670 5666 5663 5660 5658 5659 5659 5662 5664 5668 5669 5672 5674 5675 5678 5681 5685 5691 5696 5700 5702 5705 5708 5709 5712 5714 5717 5719 5720 5720 5719 5717 5716 5715 5713 5712 5712 5713 5716 5719 5724 5731 5737 5744
5695 5692 5687 5683 5679 5675 5671 5668 5665 5660 5657 5653 5650 5647 5645 5646 5649 5652 5655 5660 5663 5665 5666 5669 5672 5677 5683 5687 5691 5695 5697 5700 5702 5704 5707 5710 5712 5713 5713 5712 5710 5708 5706 5703 5701 5698 5699 5701 5705 5708 5714 5721 5728 5735
5682 5678 5674 5669 5666 5661 5658 5655 5651 5646 5643 5641 5638 5636 5634 5635 5640 5645 5648 5652 5655 5660 5660 5662 5668 5674 5679 5683 5687 5690 5693 5695 5697 5700 5703 5704 5706 5706 5705 5704 5702 5699 5696 5693 5691 5689 5688 5691 5695 5700 5705 5711 5719 5726
5669 5664 5661 5657 5653 5649 5646 5641 5637 5634 5632 5630 5631 5630 5627 5630 5635 5640 5643 5647 5650 5652 5654 5658 5666 5671 5675 5679 5682 5686 5689 5691 5693 5695 5697 5698 5699 5700 5699 5698 5695 5691 5687 5685 5683 5680 5679 5681 5684 5690 5696 5702 5709 5717
5656 5653 5650 5646 5642 5638 5633 5631 5628 5626 5626 5625 5624 5625 5626 5629 5632 5636 5640 5642 5644 5646 5651 5657 5661 5667 5670 5674 5678 5682 5684 5687 5690 5691 5692 5693 5694 5694 5693 5692 5689 5685 5681 5678 5676 5674 5672 5674 5678 5682 5687 5694 5701 5708
5647 5644 5639 5635 5631 5628 5626 5623 5622 5622 5622 5622 5622 5623 5624 5628 5631 5633 5634 5636 5639 5644 5649 5655 5660 5663 5667 5670 5674 5677 5680 5683 5685 5686 5687 5688 5688 5688 5689 5687 5684 5680 5677 5674 5671 5671 5671 5673 5677 5680 5684 5688 5692 5698
5641 5637 5632 5628 5626 5623 5622 5621 5620 5620 5620 5620 5621 5622 5624 5626 5627 5628 5630 5633 5638 5645 5649 5653 5656 5659 5662 5666 5670 5672 5674 5677 5679 5681 5682 5683 5683 5683 5683 5682 5680 5676 5673 5670 5668 5668 5668 5670 5671 5673 5676 5679 5685 5694
5635 5630 5627 5625 5624 5622 5621 5621 5620 5619 5618 5618 5618 5620 5621 5622 5625 5627 5629 5634 5638 5642 5645 5649 5651 5654 5659 5661 5664 5667 5669 5671 5673 5676 5676 5677 5678 5678 5678 5677 5676 5673 5670 5668 5666 5666 5666 5665 5664 5665 5668 5670 5676 5686
5631 5629 5627 5625 5623 5622 5620 5620 5620 5620 5620 5620 5621 5621 5623 5624 5626 5628 5631 5634 5636 5639 5642 5644 5647 5650 5653 5656 5659 5662 5664 5666 5667 5670 5670 5672 5672 5672 5673 5673 5672 5670 5668 5666 5664 5664 5663 5661 5660 5659 5662 5665 5671 5680
5630 5629 5628 5626 5625 5624 5623 5623 5623 5623 5623 5623 5623 5623 5624 5625 5626 5628 5629 5632 5634 5636 5638 5640 5643 5646 5649 5651 5654 5657 5658 5660 5661 5664 5664 5666 5665 5666 5667 5667 5667 5667 5666 5664 5663 5662 5661 5660 5660 5660 5662 5665 5669 5676
5631 5629 5629 5628 5627 5626 5625 5624 5623 5623 5624 5623 5623 5623 5624 5625 5625 5626 5628 5629 5631 5632 5634 5636 5638 5641 5643 5646 5648 5650 5651 5653 5655 5656 5658 5659 5657 5660 5661 5661 5662 5662 5662 5662 5662 5661 5660 5660 5660 5661 5662 5666 5669 5674
5631 5631 5630 5629 5627 5626 5625 5624 5624 5623 5623 5622 5622 5622 5622 5623 5623 5624 5625 5626 5627 5628 5630 5632 5634 5636 5638 5640 5641 5642 5645 5646 5646 5650 5653 5649 5651 5653 5655 5655 5656 5657 5657 5658 5658 5659 5658 5658 5658 5659 5661 5662 5665 5669
5632 5631 5630 5628 5627 5626 5624 5623 5622 5621 5621 5620 5620 5619 5619 5619 5619 5620 5621 5622 5623 5624 5626 5627 5629 5631 5632 5633 5634 5636 5637 5638 5641 5646 5643 5643 5645 5647 5648 5649 5650 5651 5651 5651 5653 5654 5655 5656 5656 5657 5657 5659 5660 5662
5632 5631 5630 5628 5626 5625 5623 5621 5620 5619 5617 5617 5616 5615 5614 5614 5615 5614 5615 5616 5617 5619 5620 5621 5622 5624 5625 5627 5628 5629 5630 5633 5634 5634 5635 5636 5638 5639 5641 5642 5643 5644 5645 5646 5646 5648 5649 5651 5652 5653 5654 5654 5655 5657
5632 5631 5629 5627 5626 5624 5622 5620 5619 5617 5616 5614 5612 5611 5610 5610 5609 5609 5609 5609 5610 5612 5613 5614 5615 5616 5618 5618 5620 5621 5622 5625 5625 5626 5628 5628 5630 5632 5633 5634 5635 5636 5637 5638 5640 5642 5643 5644 5646 5647 5648 5649 5649 5650
5632 5631 5630 5628 5626 5624 5622 5620 5618 5616 5613 5612 5610 5608 5607 5606 5605 5604 5604 5604 5604 5604 5605 5606 5608 5609 5611 5612 5614 5615 5614 5615 5617 5617 5619 5621 5621 5622 5624 5625 5626 5628 5629 5630 5631 5633 5633 5634 5636 5638 5640 5641 5642 5643
5633 5633 5631 5630 5628 5626 5623 5621 5619 5616 5613 5611 5609 5607 5605 5603 5602 5600 5599 5599 5599 5599 5600 5599 5600 5602 5604 5606 5607 5607 5606 5607 5609 5611 5612 5612 5614 5615 5616 5617 5619 5620 5621 5622 5623 5624 5625 5626 5627 5629 5631 5633 5634 5636
5635 5634 5632 5631 5629 5627 5624 5622 5619 5616 5613 5611 5608 5606 5604 5602 5600 5598 5597 5596 5596 5596 5597 5595 5596 5597 5599 5600 5601 5601 5602 5603 5604 5605 5605 5606 5608 5608 5609 5610 5611 5612 5613 5614 5616 5617 5618 5619 5620 5621 5622 5624 5626 5628
5636 5635 5633 5632 5630 5627 5625 5622 5618 5615 5613 5611 5608 5606 5604 5602 5600 5598 5597 5596 5595 5595 5596 5596 5596 5596 5597 5598 5598 5599 5599 5600 5601 5601 5602 5602 5602 5603 5604 5605 5606 5606 5606 5607 5607 5608 5610 5611 5612 5613 5614 5616 5617 5619
5637 5636 5634 5632 5630 5628 5625 5622 5619 5616 5614 5611 5609 5606 5604 5602 5601 5599 5598 5597 5596 5596 5596 5596 5596 5596 5596 5597 5597 5598 5598 5598 5599 5599 5599 5600 5602 5601 5601 5602 5601 5600 5600 5599 5599 5600 5600 5601 5602 5603 5604 5605 5606 5610
5638 5637 5635 5633 5632 5629 5628 5624 5621 5618 5615 5612 5609 5607 5605 5604 5602 5601 5600 5599 5598 5597 5597 5597 5597 5597 5597 5598 5597 5598 5598 5598 5598 5599 5599 5598 5598 5597 5596 5596 5595 5594 5593 5592 5591 5591 5591 5592 5592 5593 5595 5596 5598 5602
5640 5638 5637 5635 5633 5632 5629 5626 5623 5620 5617 5614 5611 5609 5607 5606 5604 5603 5602 5601 5601 5600 5599 5599 5599 5599 5599 5599 5599 5598 5598 5598 5598 5597 5596 5595 5594 5593 5592 5591 5589 5588 5587 5586 5584 5583 5582 5583 5585 5586 5588 5590 5592 5595
5643 5642 5640 5637 5635 5633 5630 5628 5624 5621 5617 5616 5614 5612 5610 5608 5606 5605 5605 5604 5603 5602 5602 5601 5600 5600 5599 5599 5599 5600 5599 5599 5598 5598 5596 5594 5592 5590 5588 5586 5584 5582 5580 5579 5577 5576 5575 5575 5576 5577 5580 5583 5585 5588
5643 5642 5641 5639 5637 5635 5632 5629 5626 5624 5621 5619 5617 5615 5612 5611 5610 5609 5608 5607 5606 5605 5604 5603 5602 5602 5602 5601 5601 5601 5600 5599 5598 5597 5595 5593 5591 5588 5586 5584 5582 5580 5577 5575 5573 5571 5570 5569 5568 5570 5572 5574 5577 5580
5645 5644 5642 5640 5639 5637 5634 5632 5630 5627 5624 5621 5620 5617 5616 5614 5614 5613 5611 5610 5609 5608 5607 5606 5605 5605 5604 5603 5603 5602 5602 5601 5599 5598 5596 5594 5592 5590 5588 5586 5583 5581 5578 5575 5572 5570 5568 5565 5563 5564 5565 5567 5570 5574
5647 5646 5644 5643 5641 5639 5637 5635 5633 5630 5627 5625 5623 5620 5619 5618 5617 5616 5614 5613 5612 5611 5611 5610 5610 5609 5608 5607 5606 5606 5605 5603 5602 5600 5598 5596 5594 5592 5590 5588 5586 5583 5580 5577 5574 5571 5568 5567 5565 5565 5564 5565 5566 5569
5649 5648 5646 5644 5642 5641 5639 5637 5634 5632 5630 5627 5625 5623 5622 5621 5619 5618 5618 5617 5616 5616 5615 5615 5614 5613 5612 5611 5611 5610 5608 5606 5605 5603 5601 5599 5597 5595 5593 5591 5589 5586 5583 5580 5578 5575 5572 5570 5569 5568 5567 5567 5568 5569
5650 5649 5647 5645 5644 5642 5640 5638 5636 5634 5632 5630 5629 5627 5625 5624 5623 5623 5622 5621 5621 5621 5620 5619 5619 5618 5617 5616 5615 5614 5612 5611 5610 5608 5605 5603 5601 5599 5597 5595 5593 5591 5588 5586 5584 5581 5579 5577 5575 5574 5573 5572 5573 5574
5651 5650 5648 5646 5645 5643 5641 5640 5639 5637 5635 5634 5632 5631 5629 5628 5627 5627 5626 5625 5625 5625 5624 5624 5623 5623 5622 5621 5620 5618 5617 5615 5614 5612 5611 5609 5607 5605 5603 5601 5599 5597 5595 5592 5590 5588 5587 5585 5584 5583 5581 5581 5581 5582
5652 5650 5649 5647 5646 5645 5643 5642 5641 5640 5639 5637 5636 5634 5633 5632 5631 5630 5630 5629 5628 5628 5628 5628 5627 5627 5625 5625 5624 5623 5622 5621 5620 5618 5617 5614 5612 5610 5609 5607 5605 5604 5602 5600 5598 5596 5594 5593 5592 5592 5591 5592 5592 5593
5653 5651 5650 5648 5647 5646 5645 5644 5643 5642 5641 5640 5639 5638 5636 5635 5634 5634 5633 5632 5632 5631 5631 5631 5631 5631 5629 5629 5628 5628 5627 5626 5624 5623 5621 5619 5618 5616 5614 5613 5611 5610 5609 5607 5606 5604 5603 5602 5602 5602 5602 5602 5602 5603